Time,TemperatureF,DewpointF,PressureIn,WindDirection,WindDirectionDegrees,WindSpeedMPH,WindSpeedGustMPH,Humidity,HourlyPrecipIn,Conditions,Clouds,dailyrainin,SoftwareType,DateUTC
2013-01-20 11:25:00,55.6,38.7,30.07,SE,137,1.0,1.0,53,0.00,,,0.00,Wunderground v.1.15,2013-01-20 16:25:00,
2013-01-20 11:30:00,55.9,39.0,30.06,South,186,1.0,2.0,53,0.00,,,0.00,Wunderground v.1.15,2013-01-20 16:30:00,
2013-01-20 11:40:00,56.6,38.2,30.06,SE,139,1.0,2.0,50,0.00,,,0.00,Wunderground v.1.15,2013-01-20 16:40:00,
2013-01-20 11:45:00,56.8,38.3,30.05,SSE,160,0.0,1.0,50,0.00,,,0.00,Wunderground v.1.15,2013-01-20 16:45:00,
2013-01-20 11:55:00,57.7,38.7,30.04,South,180,1.0,2.0,49,0.00,,,0.00,Wunderground v.1.15,2013-01-20 16:55:00,
2013-01-20 12:00:00,58.0,37.3,30.04,North,359,1.0,5.0,46,0.00,,,0.00,Wunderground v.1.15,2013-01-20 17:00:00,
2013-01-20 12:10:00,58.6,38.4,30.03,South,191,2.0,2.0,47,0.00,,,0.00,Wunderground v.1.15,2013-01-20 17:10:00,
2013-01-20 12:15:00,59.0,37.7,30.03,SE,142,1.0,2.0,45,0.00,,,0.00,Wunderground v.1.15,2013-01-20 17:15:00,
2013-01-20 12:25:00,59.4,38.6,30.02,SE,128,1.0,1.0,46,0.00,,,0.00,Wunderground v.1.15,2013-01-20 17:25:00,
2013-01-20 12:30:00,59.7,37.2,30.02,SSW,200,2.0,2.0,43,0.00,,,0.00,Wunderground v.1.15,2013-01-20 17:30:00,
2013-01-20 12:35:00,59.7,37.2,30.02,WNW,291,2.0,4.0,43,0.00,,,0.00,Wunderground v.1.15,2013-01-20 17:35:00,
2013-01-20 12:45:00,59.8,37.2,30.01,SSE,160,2.0,3.0,43,0.00,,,0.00,Wunderground v.1.15,2013-01-20 17:45:00,
2013-01-20 12:55:00,60.6,39.7,30.00,SE,136,1.0,2.0,46,0.00,,,0.00,Wunderground v.1.15,2013-01-20 17:55:00,
2013-01-20 13:00:00,61.0,38.9,30.00,East,85,0.0,1.0,44,0.00,,,0.00,Wunderground v.1.15,2013-01-20 18:00:00,
2013-01-20 13:10:00,61.2,39.1,30.00,South,174,2.0,2.0,44,0.00,,,0.00,Wunderground v.1.15,2013-01-20 18:10:00,
2013-01-20 13:15:00,61.3,38.6,30.00,East,86,1.0,2.0,43,0.00,,,0.00,Wunderground v.1.15,2013-01-20 18:15:00,
2013-01-20 13:20:00,61.7,39.0,30.00,SE,134,1.0,1.0,43,0.00,,,0.00,Wunderground v.1.15,2013-01-20 18:20:00,
2013-01-20 13:25:00,61.9,38.5,29.99,SE,141,2.0,2.0,42,0.00,,,0.00,Wunderground v.1.15,2013-01-20 18:25:00,
2013-01-20 13:30:00,62.1,38.1,29.99,ESE,113,2.0,3.0,41,0.00,,,0.00,Wunderground v.1.15,2013-01-20 18:30:00,
2013-01-20 13:40:00,62.2,36.9,29.99,South,179,2.0,2.0,39,0.00,,,0.00,Wunderground v.1.15,2013-01-20 18:40:00,
2013-01-20 13:45:00,62.3,38.3,29.99,SSW,205,1.0,2.0,41,0.00,,,0.00,Wunderground v.1.15,2013-01-20 18:45:00,
2013-01-20 13:55:00,62.8,38.1,29.99,SSW,201,2.0,3.0,40,0.00,,,0.00,Wunderground v.1.15,2013-01-20 18:55:00,
2013-01-20 14:00:00,62.8,37.5,29.99,NNW,336,2.0,5.0,39,0.00,,,0.00,Wunderground v.1.15,2013-01-20 19:00:00,
2013-01-20 14:10:00,62.8,36.8,29.99,SSE,156,2.0,2.0,38,0.00,,,0.00,Wunderground v.1.15,2013-01-20 19:10:00,
2013-01-20 14:15:00,62.7,36.7,29.99,South,183,2.0,2.0,38,0.00,,,0.00,Wunderground v.1.15,2013-01-20 19:15:00,
2013-01-20 14:25:00,62.9,35.5,29.98,NE,44,2.0,4.0,36,0.00,,,0.00,Wunderground v.1.15,2013-01-20 19:25:00,
2013-01-20 14:30:00,63.0,37.0,29.98,NE,36,2.0,2.0,38,0.00,,,0.00,Wunderground v.1.15,2013-01-20 19:30:00,
2013-01-20 14:35:00,63.2,37.2,29.98,South,171,2.0,2.0,38,0.00,,,0.00,Wunderground v.1.15,2013-01-20 19:35:00,
2013-01-20 14:40:00,63.2,36.5,29.98,SE,139,2.0,2.0,37,0.00,,,0.00,Wunderground v.1.15,2013-01-20 19:40:00,
2013-01-20 14:50:00,62.5,36.5,29.98,SSE,166,2.0,2.0,38,0.00,,,0.00,Wunderground v.1.15,2013-01-20 19:50:00,
2013-01-20 14:55:00,62.2,36.3,29.98,South,181,2.0,2.0,38,0.00,,,0.00,Wunderground v.1.15,2013-01-20 19:55:00,
2013-01-20 15:00:00,62.1,36.8,29.98,SSW,207,1.0,4.0,39,0.00,,,0.00,Wunderground v.1.15,2013-01-20 20:00:00,
2013-01-20 15:10:00,61.9,36.7,29.98,SSE,148,1.0,1.0,39,0.00,,,0.00,Wunderground v.1.15,2013-01-20 20:10:00,
2013-01-20 15:15:00,61.9,38.5,29.98,SSE,163,0.0,1.0,42,0.00,,,0.00,Wunderground v.1.15,2013-01-20 20:15:00,
2013-01-20 15:25:00,62.1,36.2,29.98,SSE,165,1.0,3.0,38,0.00,,,0.00,Wunderground v.1.15,2013-01-20 20:25:00,
2013-01-20 15:30:00,62.0,35.4,29.98,SSE,163,1.0,1.0,37,0.00,,,0.00,Wunderground v.1.15,2013-01-20 20:30:00,
2013-01-20 15:40:00,61.9,36.0,29.98,South,190,1.0,4.0,38,0.00,,,0.00,Wunderground v.1.15,2013-01-20 20:40:00,
2013-01-20 15:45:00,62.0,36.1,29.98,SSE,149,2.0,4.0,38,0.00,,,0.00,Wunderground v.1.15,2013-01-20 20:45:00,
2013-01-20 15:55:00,61.9,36.0,29.98,South,182,1.0,2.0,38,0.00,,,0.00,Wunderground v.1.15,2013-01-20 20:55:00,
2013-01-20 16:00:00,61.9,36.7,29.98,SE,124,1.0,2.0,39,0.00,,,0.00,Wunderground v.1.15,2013-01-20 21:00:00,
2013-01-20 16:05:00,61.8,36.6,29.98,SE,132,1.0,2.0,39,0.00,,,0.00,Wunderground v.1.15,2013-01-20 21:05:00,
2013-01-20 16:15:00,61.7,37.1,29.99,SSW,207,0.0,2.0,40,0.00,,,0.00,Wunderground v.1.15,2013-01-20 21:15:00,
2013-01-20 16:20:00,61.5,34.3,29.98,SSW,212,1.0,1.0,36,0.00,,,0.00,Wunderground v.1.15,2013-01-20 21:20:00,
2013-01-20 16:25:00,61.3,34.1,29.98,SSW,205,2.0,2.0,36,0.00,,,0.00,Wunderground v.1.15,2013-01-20 21:25:00,
2013-01-20 16:35:00,60.9,34.4,29.99,SW,232,1.0,1.0,37,0.00,,,0.00,Wunderground v.1.15,2013-01-20 21:35:00,
2013-01-20 16:40:00,60.7,34.9,29.99,South,180,0.0,0.0,38,0.00,,,0.00,Wunderground v.1.15,2013-01-20 21:40:00,
2013-01-20 16:45:00,60.3,36.5,29.99,SSE,156,0.0,0.0,41,0.00,,,0.00,Wunderground v.1.15,2013-01-20 21:45:00,
2013-01-20 16:55:00,59.8,35.4,29.99,SW,235,0.0,1.0,40,0.00,,,0.00,Wunderground v.1.15,2013-01-20 21:55:00,
2013-01-20 17:00:00,59.4,37.5,29.99,SSW,200,0.0,0.0,44,0.00,,,0.00,Wunderground v.1.15,2013-01-20 22:00:00,
2013-01-20 17:10:00,57.6,37.0,29.99,South,177,0.0,0.0,46,0.00,,,0.00,Wunderground v.1.15,2013-01-20 22:10:00,
2013-01-20 17:15:00,56.7,36.7,29.99,South,177,0.0,0.0,47,0.00,,,0.00,Wunderground v.1.15,2013-01-20 22:15:00,
2013-01-20 17:25:00,55.3,38.9,30.00,South,177,0.0,0.0,54,0.00,,,0.00,Wunderground v.1.15,2013-01-20 22:25:00,
2013-01-20 17:30:00,54.3,38.5,30.00,South,177,0.0,0.0,55,0.00,,,0.00,Wunderground v.1.15,2013-01-20 22:30:00,
2013-01-20 17:35:00,53.6,37.8,30.00,South,177,0.0,0.0,55,0.00,,,0.00,Wunderground v.1.15,2013-01-20 22:35:00,
2013-01-20 17:45:00,52.2,39.1,30.01,South,177,0.0,0.0,61,0.00,,,0.00,Wunderground v.1.15,2013-01-20 22:45:00,
2013-01-20 17:50:00,51.3,39.5,30.01,South,177,0.0,0.0,64,0.00,,,0.00,Wunderground v.1.15,2013-01-20 22:50:00,
2013-01-20 17:55:00,50.5,39.2,30.01,South,177,0.0,0.0,65,0.00,,,0.00,Wunderground v.1.15,2013-01-20 22:55:00,
2013-01-20 18:05:00,49.1,40.5,30.02,South,177,0.0,0.0,72,0.00,,,0.00,Wunderground v.1.15,2013-01-20 23:05:00,
2013-01-20 18:10:00,48.5,40.2,30.02,South,177,0.0,0.0,73,0.00,,,0.00,Wunderground v.1.15,2013-01-20 23:10:00,
2013-01-20 18:20:00,47.2,39.0,30.02,South,177,0.0,0.0,73,0.00,,,0.00,Wunderground v.1.15,2013-01-20 23:20:00,
2013-01-20 18:25:00,46.8,38.9,30.02,South,177,0.0,0.0,74,0.00,,,0.00,Wunderground v.1.15,2013-01-20 23:25:00,
2013-01-20 18:30:00,46.3,38.8,30.03,South,177,0.0,0.0,75,0.00,,,0.00,Wunderground v.1.15,2013-01-20 23:30:00,
2013-01-20 18:40:00,45.4,38.6,30.03,South,177,0.0,0.0,77,0.00,,,0.00,Wunderground v.1.15,2013-01-20 23:40:00,
2013-01-20 18:45:00,44.8,38.4,30.03,South,177,0.0,0.0,78,0.00,,,0.00,Wunderground v.1.15,2013-01-20 23:45:00,
2013-01-20 18:55:00,44.0,38.2,30.03,South,177,0.0,0.0,80,0.00,,,0.00,Wunderground v.1.15,2013-01-20 23:55:00,
2013-01-20 19:00:00,43.6,38.2,30.04,South,177,0.0,0.0,81,0.00,,,0.00,Wunderground v.1.15,2013-01-21 00:00:00,
2013-01-20 19:10:00,42.8,37.7,30.03,South,178,0.0,0.0,82,0.00,,,0.00,Wunderground v.1.15,2013-01-21 00:10:00,
2013-01-20 19:15:00,42.4,37.3,30.04,South,177,0.0,0.0,82,0.00,,,0.00,Wunderground v.1.15,2013-01-21 00:15:00,
2013-01-20 19:25:00,41.8,37.3,30.04,South,177,0.0,0.0,84,0.00,,,0.00,Wunderground v.1.15,2013-01-21 00:25:00,
2013-01-20 19:30:00,41.7,37.2,30.04,South,177,0.0,0.0,84,0.00,,,0.00,Wunderground v.1.15,2013-01-21 00:30:00,
2013-01-20 19:40:00,41.3,37.1,30.05,South,178,0.0,0.0,85,0.00,,,0.00,Wunderground v.1.15,2013-01-21 00:40:00,
2013-01-20 19:45:00,41.1,36.9,30.05,South,177,0.0,0.0,85,0.00,,,0.00,Wunderground v.1.15,2013-01-21 00:45:00,
2013-01-20 19:50:00,40.9,37.0,30.05,South,177,0.0,0.0,86,0.00,,,0.00,Wunderground v.1.15,2013-01-21 00:50:00,
2013-01-20 19:55:00,40.6,36.7,30.05,South,177,0.0,0.0,86,0.00,,,0.00,Wunderground v.1.15,2013-01-21 00:55:00,
2013-01-20 20:05:00,40.1,36.0,30.05,South,177,0.0,0.0,85,0.00,,,0.00,Wunderground v.1.15,2013-01-21 01:05:00,
2013-01-20 20:10:00,39.8,35.7,30.06,South,177,0.0,0.0,85,0.00,,,0.00,Wunderground v.1.15,2013-01-21 01:10:00,
2013-01-20 20:20:00,39.5,35.7,30.06,South,178,0.0,0.0,86,0.00,,,0.00,Wunderground v.1.15,2013-01-21 01:20:00,
2013-01-20 20:25:00,39.2,35.7,30.06,South,178,0.0,0.0,87,0.00,,,0.00,Wunderground v.1.15,2013-01-21 01:25:00,
2013-01-20 20:30:00,39.0,35.5,30.06,South,177,0.0,0.0,87,0.00,,,0.00,Wunderground v.1.15,2013-01-21 01:30:00,
2013-01-20 20:40:00,38.6,35.4,30.07,South,177,0.0,0.0,88,0.00,,,0.00,Wunderground v.1.15,2013-01-21 01:40:00,
2013-01-20 20:45:00,38.4,35.2,30.07,South,177,0.0,0.0,88,0.00,,,0.00,Wunderground v.1.15,2013-01-21 01:45:00,
2013-01-20 20:55:00,37.9,34.7,30.07,South,176,0.0,0.0,88,0.00,,,0.00,Wunderground v.1.15,2013-01-21 01:55:00,
2013-01-20 21:00:00,37.7,34.5,30.07,South,177,0.0,0.0,88,0.00,,,0.00,Wunderground v.1.15,2013-01-21 02:00:00,
2013-01-20 21:10:00,37.4,34.5,30.07,South,177,0.0,0.0,89,0.00,,,0.00,Wunderground v.1.15,2013-01-21 02:10:00,
2013-01-20 21:15:00,37.3,34.4,30.07,South,177,0.0,0.0,89,0.00,,,0.00,Wunderground v.1.15,2013-01-21 02:15:00,
2013-01-20 21:25:00,37.1,34.2,30.08,South,176,0.0,0.0,89,0.00,,,0.00,Wunderground v.1.15,2013-01-21 02:25:00,
2013-01-20 21:30:00,36.8,33.9,30.08,South,176,0.0,0.0,89,0.00,,,0.00,Wunderground v.1.15,2013-01-21 02:30:00,
2013-01-20 21:40:00,36.4,33.7,30.08,South,177,0.0,0.0,90,0.00,,,0.00,Wunderground v.1.15,2013-01-21 02:40:00,
2013-01-20 21:45:00,36.3,33.6,30.08,South,176,0.0,0.0,90,0.00,,,0.00,Wunderground v.1.15,2013-01-21 02:45:00,
2013-01-20 21:50:00,36.1,33.5,30.07,South,177,0.0,0.0,90,0.00,,,0.00,Wunderground v.1.15,2013-01-21 02:50:00,
2013-01-20 21:55:00,35.8,33.2,30.08,South,176,0.0,0.0,90,0.00,,,0.00,Wunderground v.1.15,2013-01-21 02:55:00,
2013-01-20 22:05:00,35.5,32.9,30.08,South,176,0.0,0.0,90,0.00,,,0.00,Wunderground v.1.15,2013-01-21 03:05:00,
2013-01-20 22:10:00,35.5,33.1,30.08,South,176,0.0,0.0,91,0.00,,,0.00,Wunderground v.1.15,2013-01-21 03:10:00,
2013-01-20 22:15:00,35.4,33.0,30.07,South,176,0.0,0.0,91,0.00,,,0.00,Wunderground v.1.15,2013-01-21 03:15:00,
2013-01-20 22:25:00,34.8,32.4,30.08,South,176,0.0,0.0,91,0.00,,,0.00,Wunderground v.1.15,2013-01-21 03:25:00,
2013-01-20 22:30:00,34.6,32.5,30.08,South,176,0.0,0.0,92,0.00,,,0.00,Wunderground v.1.15,2013-01-21 03:30:00,
2013-01-20 22:40:00,34.5,32.4,30.08,South,176,0.0,0.0,92,0.00,,,0.00,Wunderground v.1.15,2013-01-21 03:40:00,
2013-01-20 22:45:00,34.3,32.2,30.08,South,176,0.0,0.0,92,0.00,,,0.00,Wunderground v.1.15,2013-01-21 03:45:00,
2013-01-20 22:55:00,34.0,31.9,30.07,South,176,0.0,0.0,92,0.00,,,0.00,Wunderground v.1.15,2013-01-21 03:55:00,
2013-01-20 23:00:00,33.9,31.8,30.08,South,176,0.0,0.0,92,0.00,,,0.00,Wunderground v.1.15,2013-01-21 04:00:00,
2013-01-20 23:10:00,33.6,31.8,30.08,South,176,0.0,0.0,93,0.00,,,0.00,Wunderground v.1.15,2013-01-21 04:10:00,
2013-01-20 23:15:00,33.5,31.7,30.08,South,176,0.0,0.0,93,0.00,,,0.00,Wunderground v.1.15,2013-01-21 04:15:00,
2013-01-20 23:25:00,33.3,31.2,30.08,South,176,0.0,0.0,92,0.00,,,0.00,Wunderground v.1.15,2013-01-21 04:25:00,
2013-01-20 23:30:00,33.3,31.2,30.08,South,176,0.0,0.0,92,0.00,,,0.00,Wunderground v.1.15,2013-01-21 04:30:00,